www.pogodaiklimat.ru

Погода и климат >> Архив погоды >> Индонезия >> Ранаи


ПОГОДА в Ранаи

  • Прогноз погоды в Ранаи
  • Монитор погоды в Ранаи

АРХИВ ПОГОДЫ в Ранаи

Время (UTC), дата Ветер
(напр.,м/с)
 
Видим.   Явления Облачность Т
(С)
Тd
(С)
f
(%)
Тe
(С)
Тes
(С)
Комфортность P
(гПа)
Po
(гПа)
Тmin
(С)
Tmax
(С)
R
(мм)
R24
(мм)
S
(см)
03 14.09 Ю 8 10 км 3/3 600 м
[]
+30.9 +21.8 58 +39 +42 очень
душно
1011.6 1011.2 +25.0 +33.0
00 16.09 ЮЗ 3 3700 м дым ясно +27.6 +22.0 72 +36 +38 очень
душно
1011.4 1011.0 +25.0 +33.0
03 16.09 ЮЗ 3 6000 м мгла 6/4 450 м
[Sc Ac trans Ci fib]
+30.0 +24.5 72 +42 +50 опасность
перегрева
1011.2 1011.0
06 16.09 ЮВ 3 10 км 5/5 1000 м
[]
+30.0 +23.3 67 +40 +49 очень
душно
1008.8 1008.3 +24.0 +32.1 3
09 16.09 ЮЗ 3 5000 м дым 6/5 450 м
[Sc Ac trans Ci fib]
+29.0 +25.4 81 +43 +44 опасность
перегрева
1009.9 1009.7
12 16.09 ЮЗ 3 5000 м осадки на расстоянии 6/5 450 м
[Sc Ac trans Ci fib]
+27.6 +25.0 86 +40 +40 очень
душно
1010.4 1010.2 +32.4
00 17.09 ЮЗ 3 5000 м дым 5/4 480 м
[Sc Ac trans Ci fib]
+27.0 +25.0 89 +39 +40 очень
душно
1011.8 1011.6 +23.0 2
03 17.09 ЮЗ 5 2400 м дым ясно +31.0 +23.0 62 +41 +51 опасность
перегрева
1011.2 1010.7 +28.3 +31.1
06 17.09 Ю 5 3000 м дым ясно +32.2 +24.7 65 +45 +56 опасность
перегрева
1008.7 1008.2 +28.3 +32.3
09 17.09 Ю 5 3700 м дым ясно +30.6 +23.1 64 +41 +43 опасность
перегрева
1008.3 1007.8 +28.3 +32.5
12 17.09 ЮЗ 3 5000 м н/о +27.8 +23.9 79 +38 +38 очень
душно
1010.1 1009.6 +27.8 +32.5 0.6
00 18.09 Ю 3 1500 м дым ?/? +26.2 +24.5 90 +37 +38 очень
душно
1011.0 1010.8 +22.6 +32.5 0.6
03 18.09 Ю 6 2000 м дым ясно +31.6 +24.5 66 +44 +52 опасность
перегрева
1011.9 1011.5 +25.4 +32.5
06 18.09 ЮЗ 4 2000 м осадки на расстоянии 6/5 450 м
[Sc Ac trans Ci fib]
+32.0 +25.0 67 +46 +52 опасность
перегрева
1009.4 1009.2
09 18.09 Ю 5 2100 м дым ясно +30.8 +24.5 69 +43 +46 опасность
перегрева
1009.0 1008.5 +30.8 +32.9
12 18.09 ЮЗ 2 1000 м дым 6/4 450 м
[Sc diur, vesp Ac trans Ci fib]
+28.2 +25.0 83 +41 +41 опасность
перегрева
1008.8 1008.6 +32.6
00 19.09 З 2 2100 м дым ясно +27.2 +24.4 85 +38 +41 очень
душно
1012.0 1011.6 +25.6 +32.9
03 19.09 Ю 2 2200 м дым ясно +31.0 +24.0 66 +43 +62 опасность
перегрева
1012.5 1012.0 +25.6 +32.9
06 19.09 Ю 3 2800 м дым ясно +31.8 +24.2 64 +44 +62 опасность
перегрева
1010.0 1009.6 +25.6 +32.9 0.3
09 19.09 Ю 2 3200 м дым ясно +30.9 +24.4 68 +43 +47 опасность
перегрева
1008.8 1008.4 +25.6 +33.0
12 19.09 ЮВ 1 4400 м дым 3/3 600 м
[]
+28.5 +25.0 81 +41 +41 опасность
перегрева
1010.2 1009.7 +25.6 +33.0 0.3
00 20.09 З 1 1200 м дымка ?/? +26.2 +24.8 92 +37 +37 очень
душно
1011.2 1010.7 +24.6 +26.2 0.3
03 20.09 СВ 3 2300 м дым ясно +31.1 +25.0 70 +45 +60 опасность
перегрева
1011.7 1011.2 +24.6 +31.2
06 20.09 СВ 3 2500 м дым ясно +31.0 +24.9 70 +44 +62 опасность
перегрева
1009.3 1008.9 +24.6 +31.8
09 20.09 З 2 3000 м дым ясно +30.1 +24.1 70 +42 +46 опасность
перегрева
1009.0 1008.5 +29.8 +31.6
12 20.09 З 2 4000 м дым 3/3 1000 м
[]
+26.8 +24.6 88 +38 +38 очень
душно
1010.1 1009.6 +26.6 +31.6
00 21.09 ЮЗ 1 2200 м дымка ясно +27.0 +25.2 90 +39 +42 очень
душно
1011.0 1010.6 +24.1 +27.0

 

Местоположение метеостанции Ранаи (Индонезия): широта 3.95 долгота 108.38 высота над уровнем моря 2 м.

В архиве по умолчанию представлена погода в Ранаи за последнюю неделю. Архивные данные за месяц целиком и за предыдущие месяцы, начиная с января 2011 года, Вы можете получить, выбрав интересующий диапазон дат из раскрывающегося списка и нажав кнопку "Ввод!".


*Определитесь, кто Вы:
робот инопланетянин человек

Внимание! Время в таблицах - всемирное. Для получения местного времени необходимо прибавить поправку, которая равна 7 ч.

Смотрите также архив погоды в соседних городах и на ближайших метеорологических станциях:

Погода в Таремпе (Индонезия) (251 км)
Погода в Парохе (Индонезия) (263 км)
Погода в Кучинге (Малайзия) (350 км)
Погода в Сибу (Малайзия) (423 км)
Погода в Понтианаке (Индонезия) (470 км)
Погода в Хуентране (Вьетнам) (515 км)
Погода в Бинталу (Малайзия) (523 км)
Погода в Мерсинге (Малайзия) (531 км)
Погода в Танджунгпинанге (Индонезия) (545 км)
Погода в Синтанге (Индонезия) (551 км)

Пояснения к столбцам:

Ветер - указаны скорость ветра в м/с - средняя за 10 мин, порывы в срок и между сроками (в фигурных скобках) и направление, откуда дует ветер: С - северный, СВ - северо-восточный, В - восточный, ЮВ - юго-восточный, Ю - южный, ЮЗ - юго-западный, З - западный, СЗ - северо-западный.
Видимость - горизонтальная дальность видимости в метрах или километрах. При видимости от 1 до 10 км при отсутствии осадков обычно наблюдается дымка, при ухудшении видимости до 1 км и менее - туман. В сухую погоду видимость может ухудшаться дымом, пылью или мглою.
Явления - указаны атмосферные явления, наблюдавшиеся в срок или в последний час перед сроком; фигурными скобками обозначены явления, наблюдавшиеся между сроками (за 1-3 часа до срока); квадратными скобками обозначены град или гололедные отложения с указанием их диаметра в мм.
Облачность - указаны через наклонную черту общая и нижняя облачность в баллах и высота нижней границы облаков в метрах; квадратными скобками обозначены формы облаков: Ci - перистые, Cs - перисто-слоистые, Cc - перисто-кучевые, Ac - высококучевые, As - высокослоистые, Sc - слоисто-кучевые, Ns - слоисто-дождевые, Cu - кучевые, Cb - кучево-дождевые. Подробнее классификацию облаков см. в Атласе облаков (PDF).
T - Температура воздуха - температура, измеренная на высоте 2 м над землей.
Td - Температура точки росы - температура, при понижении до которой содержащийся в воздухе водяной пар достигнет насыщения.
f - Относительная влажность воздуха - влажноcть воздуха, измеренная на высоте 2 м над землей.
Te - Эффективная температура - температура, которую ощущает одетый по сезону человек в тени. Характеристика душности погоды. При расчете учитывается влияние влажности воздуха и скорости ветра на теплоощущения человека.
Tes - Эффективная температура на солнце - температура, которую ощущает человек, с поправкой на солнечный нагрев. Характеристика знойности погоды. Зависит от высоты солнца над горизонтом, облачности и скорости ветра. Ночью, в пасмурную погоду, а также при ветре 12 м/с и более поправка равна нулю.
P - Атмосферное давление - приведенное к уровню моря атмосферное давление.
Po - Атмосферное давление - измеренное на уровне метеостанции атмосферное давление.
Tmin - Минимальная температура - минимум температуры воздуха на высоте 2 м над землей.
Tmax - Максимальная температура - максимум температуры воздуха на высоте 2 м над землей.
R - Количество осадков - Количество выпавших осадков за период времени, мм. При наведении курсора мыши на число - период времени, за который выпало указанное количество осадков.
R24 - Количество осадков - Количество выпавших осадков за 24 часа, мм.
S - Снежный покров - Высота снежного покрова, см. При наведении курсора мыши на число - состояние снежного покрова и степень покрытия местности в баллах.